ONEWEB-0151

Last updated on Sun Apr 25 2021 00:02:03 GMT+0000 (Coordinated Universal Time)

1 48066U 21025AA 21114.58336806 -.01075664 00000-0 -45289-1 0 9992 2 48066 87.4236 339.3468 0007855 138.1138 129.9022 15.26307658 1764

Satellite not in orbit